Dobrodošli na spletni strani vremenske postaje Senovo. Vse informacije so informativnega značaja, saj vremenska postaja ni del državne mreže meteoroloških postaj. AKTUALNIH OBVESTIL NI.


Posebna pozornost v zvezi z vremenskimi dogajanji ni potrebna.    Posebna pozornost v zvezi z vremenskimi dogajanji ni potrebna.

Pogled proti Armezu več informacij Pogled proti Armezu


Bohor več informacij Bohor


Radar strel več informacij blitzortung!


Radar padavin več informacij rain snow radar


Obiščite še:

Template documentation
and downloads

And another site



Weather Underground, zgodovina - Tekstovno

Dnevni povzetek za Juli 16, 2017 Enote:  Metrično    Angleško   Obe
« Predhodni Dan
Naslednji Dan »
Dnevni Tedenski Mesečni Letni Po meri
  Višja: Nižja: Povprečje:
Temperatura: -17.8 °C -12.7 °C -7.9 °C
Točka rosišča: -17.8 °C -15.6 °C -13.9 °C
Vlažnost: Humidity % 35 % 52 %
Hitrost vetra: 0 km/h 0 km/h 5.6 km/h
Sunki vetra: 0 km/h - -
Veter:- - ESE
Zračni tlak: 0 hPa 34567.7 hPa -
Padavine: 0 mm    
Historical Graphs
 
 
Tabelarni podarki za Juli 16, 2017
Čas Temperatura Točka rosišča Zračni tlak Veter Hitrost vetra Sunki vetra Vlažnost Intenziteta padavin (urna)
-17.8 °C -17.8 °C 0 hPa Calm     Humidity % 0 mm
00:04 -7.9 °C -15.4 °C 34567.7 hPa NE 8.9 km/h 20.9 km/h 41 % 0 mm
00:09 -7.9 °C -15.4 °C 34601.5 hPa NE 9.7 km/h 24.8 km/h 41 % 0 mm
00:14 -7.9 °C -15.4 °C 34601.5 hPa NE 7.2 km/h 24.8 km/h 41 % 0 mm
00:19 -8 °C -15.4 °C 34601.5 hPa NE 6.4 km/h 14.5 km/h 41 % 0 mm
00:24 -8 °C -15.3 °C 34567.7 hPa NE 5.1 km/h 14.5 km/h 42 % 0 mm
00:29 -7.9 °C -15.2 °C 34567.7 hPa NE 5 km/h 14 km/h 42 % 0 mm
00:34 -7.9 °C -15.2 °C 34567.7 hPa NE 4.3 km/h 12.7 km/h 42 % 0 mm
00:39 -8 °C -15.3 °C 34567.7 hPa NE 4.2 km/h 14.5 km/h 42 % 0 mm
00:44 -8.1 °C -15.3 °C 34567.7 hPa NE 5.1 km/h 15.6 km/h 42 % 0 mm
00:49 -8.1 °C -15.4 °C 34567.7 hPa NE 4.2 km/h 15.6 km/h 42 % 0 mm
00:54 -8.2 °C -15.4 °C 34567.7 hPa NE 4.2 km/h 11.1 km/h 42 % 0 mm
00:59 -8.2 °C -15.3 °C 34567.7 hPa NE 5.5 km/h 11.1 km/h 43 % 0 mm
01:04 -8.2 °C -15.3 °C 34567.7 hPa NE 3.9 km/h 15 km/h 43 % 0 mm
01:09 -8.3 °C -15.4 °C 34601.5 hPa ENE 5.5 km/h 15.6 km/h 43 % 0 mm
01:14 -8.4 °C -15.3 °C 34601.5 hPa ENE 4.7 km/h 15.6 km/h 44 % 0 mm
01:19 -8.5 °C -15.3 °C 34601.5 hPa ESE 2.9 km/h 8.9 km/h 44 % 0 mm
01:24 -8.7 °C -15.6 °C 34601.5 hPa ESE 2.6 km/h 8.9 km/h 44 % 0 mm
01:29 -8.8 °C -15.4 °C 34601.5 hPa NW 1.3 km/h 8.9 km/h 45 % 0 mm
01:34 -9.1 °C -15.5 °C 34601.5 hPa WNW 1 km/h 8.9 km/h 46 % 0 mm
01:39 -9.3 °C -15.5 °C 34601.5 hPa NNW 1 km/h 8 km/h 47 % 0 mm
01:44 -9.4 °C -15.4 °C 34601.5 hPa NNW 3.1 km/h 8 km/h 48 % 0 mm
01:49 -9.6 °C -15.5 °C 34601.5 hPa NNW 3.4 km/h 8 km/h 49 % 0 mm
01:54 -9.7 °C -15.4 °C 34601.5 hPa NW 1.6 km/h 6.9 km/h 50 % 0 mm
01:59 -9.8 °C -15.4 °C 34601.5 hPa NW 2.3 km/h 8 km/h 51 % 0 mm
02:04 -10 °C -15.2 °C 34601.5 hPa NNW 3.4 km/h 9.8 km/h 53 % 0 mm
02:09 -10.2 °C -15.2 °C 34601.5 hPa NNW 2.1 km/h 9.8 km/h 54 % 0 mm
02:14 -10.3 °C -15.2 °C 34601.5 hPa West 1.6 km/h 6.9 km/h 55 % 0 mm
02:19 -10.3 °C -15.1 °C 34601.5 hPa West 1.8 km/h 6.9 km/h 56 % 0 mm
02:24 -10.4 °C -15.1 °C 34601.5 hPa West 2.3 km/h 8 km/h 57 % 0 mm
02:29 -10.5 °C -15 °C 34601.5 hPa West 2.6 km/h 8 km/h 58 % 0 mm
02:34 -10.7 °C -15 °C 34601.5 hPa East 0.8 km/h 6.9 km/h 59 % 0 mm
02:39 -10.8 °C -15.1 °C 34601.5 hPa Calm     60 % 0 mm
02:44 -10.9 °C -14.9 °C 34601.5 hPa Calm   5.1 km/h 61 % 0 mm
02:49 -11 °C -14.9 °C 34601.5 hPa WNW 0.8 km/h 6.4 km/h 62 % 0 mm
02:54 -11.1 °C -14.8 °C 34601.5 hPa WNW 1.3 km/h 6.4 km/h 63 % 0 mm
02:59 -11.2 °C -14.9 °C 34601.5 hPa SSE 0.8 km/h 5.6 km/h 63 % 0 mm
03:04 -11.3 °C -14.9 °C 34601.5 hPa SSW 0.3 km/h 5.6 km/h 64 % 0 mm
03:09 -11.3 °C -14.9 °C 34601.5 hPa WSW 0.5 km/h 4.2 km/h 65 % 0 mm
03:14 -11.4 °C -14.9 °C 34601.5 hPa West 1.6 km/h 7.6 km/h 65 % 0 mm
03:19 -11.4 °C -14.8 °C 34601.5 hPa West 1.3 km/h 7.6 km/h 66 % 0 mm
03:24 -11.6 °C -14.8 °C 34601.5 hPa Calm     67 % 0 mm
03:29 -11.6 °C -14.9 °C 34601.5 hPa NNW 0.8 km/h 6.9 km/h 67 % 0 mm
03:34 -11.7 °C -14.8 °C 34601.5 hPa NE 1.6 km/h 7.6 km/h 68 % 0 mm
03:39 -11.7 °C -14.8 °C 34601.5 hPa ENE 1 km/h 7.6 km/h 68 % 0 mm
03:44 -11.7 °C -14.8 °C 34601.5 hPa Calm     69 % 0 mm
03:49 -11.8 °C -14.8 °C 34601.5 hPa Calm     69 % 0 mm
03:54 -11.8 °C -14.7 °C 34601.5 hPa SSW 0.3 km/h 3.4 km/h 70 % 0 mm
03:59 -11.9 °C -14.8 °C 34601.5 hPa SSW 0.3 km/h 4.2 km/h 70 % 0 mm
04:04 -11.9 °C -14.8 °C 34601.5 hPa NW 1.3 km/h 7.6 km/h 71 % 0 mm
04:09 -11.9 °C -14.8 °C 34601.5 hPa NNW 2.3 km/h 7.6 km/h 71 % 0 mm
04:14 -12 °C -14.7 °C 34601.5 hPa North 1.3 km/h 6.9 km/h 72 % 0 mm
04:19 -12.1 °C -14.8 °C 34601.5 hPa Calm     72 % 0 mm
04:24 -12.1 °C -14.8 °C 34601.5 hPa Calm     72 % 0 mm
04:29 -12.2 °C -14.8 °C 34601.5 hPa Calm     73 % 0 mm
04:34 -12.2 °C -14.8 °C 34601.5 hPa Calm     73 % 0 mm
04:39 -12.3 °C -14.8 °C 34601.5 hPa NNE 0.3 km/h 4.2 km/h 73 % 0 mm
04:44 -12.3 °C -14.8 °C 34601.5 hPa NNE 0.8 km/h 4.2 km/h 74 % 0 mm
04:49 -12.3 °C -14.8 °C 34601.5 hPa NNE 0.5 km/h 4.2 km/h 74 % 0 mm
04:54 -12.4 °C -14.7 °C 34567.7 hPa Calm     75 % 0 mm
04:59 -12.4 °C -14.8 °C 34567.7 hPa Calm     75 % 0 mm
05:04 -12.4 °C -14.7 °C 34567.7 hPa Calm   2.9 km/h 76 % 0 mm
05:09 -12.5 °C -14.7 °C 34601.5 hPa Calm   2.9 km/h 76 % 0 mm
05:14 -12.6 °C -14.8 °C 34601.5 hPa Calm     76 % 0 mm
05:19 -12.6 °C -14.8 °C 34601.5 hPa Calm     76 % 0 mm
05:24 -12.6 °C -14.8 °C 34635.4 hPa Calm     76 % 0 mm
05:29 -12.7 °C -14.8 °C 34635.4 hPa Calm     77 % 0 mm
05:34 -12.7 °C -14.7 °C 34635.4 hPa Calm     78 % 0 mm
05:39 -12.7 °C -14.8 °C 34567.7 hPa Calm     77 % 0 mm
05:44 -12.7 °C -14.8 °C 34567.7 hPa Calm     77 % 0 mm
05:49 -12.7 °C -14.6 °C 34567.7 hPa NE 0.3 km/h 5.1 km/h 79 % 0 mm
05:54 -12.7 °C -14.6 °C 34601.5 hPa NE 0.3 km/h 5.1 km/h 79 % 0 mm
05:59 -12.7 °C -14.6 °C 34601.5 hPa Calm     79 % 0 mm
06:04 -12.7 °C -14.6 °C 34601.5 hPa Calm     79 % 0 mm
06:09 -12.7 °C -14.6 °C 34601.5 hPa Calm     79 % 0 mm
06:14 -12.7 °C -14.4 °C 34601.5 hPa Calm     81 % 0 mm
06:19 -12.6 °C -14.3 °C 34601.5 hPa ENE 0.3 km/h 5.1 km/h 81 % 0 mm
06:24 -12.6 °C -14.3 °C 34601.5 hPa ESE 0.5 km/h 5.1 km/h 81 % 0 mm
06:29 -12.6 °C -14.3 °C 34601.5 hPa NE 1 km/h 5.6 km/h 81 % 0 mm
06:34 -12.5 °C -14.1 °C 34601.5 hPa ENE 1.3 km/h 5.6 km/h 82 % 0 mm
06:39 -12.4 °C -14.1 °C 34601.5 hPa ENE 0.8 km/h 5.6 km/h 82 % 0 mm
06:44 -12.4 °C -14 °C 34601.5 hPa ENE 1.3 km/h 5.6 km/h 82 % 0 mm
06:49 -12.3 °C -13.8 °C 34601.5 hPa ENE 1.6 km/h 5.6 km/h 83 % 0 mm
06:54 -12.2 °C -13.8 °C 34601.5 hPa ENE 0.5 km/h 5.1 km/h 82 % 0 mm
06:59 -12.1 °C -13.7 °C 34601.5 hPa Calm     82 % 0 mm
07:04 -12 °C -13.6 °C 34601.5 hPa Calm   4.2 km/h 83 % 0 mm
07:09 -11.8 °C -13.4 °C 34601.5 hPa Calm   4.2 km/h 83 % 0 mm
07:14 -11.7 °C -13.4 °C 34601.5 hPa ESE 1.3 km/h 6.9 km/h 82 % 0 mm
07:19 -11.5 °C -13.2 °C 34601.5 hPa ESE 2.1 km/h 6.9 km/h 82 % 0 mm
07:24 -11.3 °C -13 °C 34601.5 hPa East 1.8 km/h 6.9 km/h 81 % 0 mm
07:26 -11.3 °C -13 °C 34601.5 hPa East 2.3 km/h 6.9 km/h 81 % 0 mm
07:31 -11.1 °C -12.9 °C 34601.5 hPa ENE 2.1 km/h 9.3 km/h 81 % 0 mm
07:36 -10.9 °C -12.8 °C 34601.5 hPa NE 1.3 km/h 9.3 km/h 80 % 0 mm
07:41 -10.8 °C -12.7 °C 34635.4 hPa ESE 2.3 km/h 10.3 km/h 80 % 0 mm
07:46 -10.5 °C -12.4 °C 34635.4 hPa ESE 4.2 km/h 10.3 km/h 79 % 0 mm
07:51 -10.3 °C -12.4 °C 34635.4 hPa East 3.1 km/h 8 km/h 78 % 0 mm
07:56 -10.2 °C -12.4 °C 34601.5 hPa SSW 3.9 km/h 9.8 km/h 77 % 0 mm
08:01 -10 °C -12.3 °C 34601.5 hPa SW 3.9 km/h 9.8 km/h 76 % 0 mm
08:06 -9.8 °C -12.2 °C 34635.4 hPa SW 1.8 km/h 8 km/h 75 % 0 mm
08:11 -9.6 °C -12.1 °C 34635.4 hPa SSW 3.9 km/h 9.3 km/h 75 % 0 mm
08:16 -9.4 °C -12 °C 34635.4 hPa SSW 6.3 km/h 14.5 km/h 74 % 0 mm
08:21 -9.2 °C -12 °C 34635.4 hPa SSW 7.7 km/h 15.6 km/h 72 % 0 mm
08:26 -9 °C -11.9 °C 34635.4 hPa SSW 8.5 km/h 15.6 km/h 71 % 0 mm
08:31 -8.8 °C -11.9 °C 34635.4 hPa SSW 9 km/h 12.7 km/h 69 % 0 mm
08:36 -8.5 °C -11.8 °C 34635.4 hPa SSW 9 km/h 14.5 km/h 68 % 0 mm
08:41 -8.3 °C -11.8 °C 34635.4 hPa SSW 8 km/h 16.3 km/h 67 % 0 mm
08:46 -8.1 °C -11.8 °C 34635.4 hPa South 8 km/h 16.3 km/h 65 % 0 mm
08:51 -7.8 °C -11.8 °C 34635.4 hPa SSW 7.2 km/h 20.3 km/h 63 % 0 mm
08:56 -7.4 °C -11.8 °C 34635.4 hPa South 9.3 km/h 22.5 km/h 60 % 0 mm
09:01 -7.2 °C -11.9 °C 34635.4 hPa SE 11.4 km/h 22.5 km/h 58 % 0 mm
09:06 -7 °C -12.2 °C 34635.4 hPa SE 10.9 km/h 22 km/h 55 % 0 mm
09:11 -6.8 °C -12.4 °C 34635.4 hPa SSE 10.3 km/h 22 km/h 52 % 0 mm
09:16 -6.6 °C -12.2 °C 34635.4 hPa SE 8.9 km/h 17.9 km/h 52 % 0 mm
09:21 -6.3 °C -12.5 °C 34635.4 hPa NE 9.7 km/h 26.7 km/h 49 % 0 mm
09:26 -6.2 °C -12.7 °C 34635.4 hPa NNE 10.6 km/h 26.7 km/h 47 % 0 mm
09:31 -6.2 °C -12.9 °C 34635.4 hPa NE 13.2 km/h 34.1 km/h 46 % 0 mm
09:36 -6.2 °C -13.1 °C 34635.4 hPa NE 15.3 km/h 34.1 km/h 45 % 0 mm
09:41 -6.1 °C -13.2 °C 34635.4 hPa NE 13.5 km/h 26.2 km/h 44 % 0 mm
09:46 -5.9 °C -12.8 °C 34635.4 hPa NE 11.4 km/h 26.2 km/h 45 % 0 mm
09:51 -5.8 °C -12.9 °C 34635.4 hPa ENE 11.6 km/h 31.4 km/h 44 % 0 mm
09:56 -5.7 °C -12.8 °C 34635.4 hPa ENE 14.2 km/h 31.4 km/h 44 % 0 mm
10:01 -5.6 °C -12.9 °C 34635.4 hPa ENE 14 km/h 33.6 km/h 43 % 0 mm
10:06 -5.6 °C -12.9 °C 34635.4 hPa ENE 15.3 km/h 33.6 km/h 43 % 0 mm
10:11 -5.5 °C -12.8 °C 34635.4 hPa East 16.3 km/h 29 km/h 43 % 0 mm
10:16 -5.4 °C -12.9 °C 34635.4 hPa East 16.6 km/h 33.2 km/h 42 % 0 mm
10:21 -5.4 °C -12.9 °C 34635.4 hPa ENE 18.3 km/h 56.6 km/h 42 % 0 mm
10:26 -5.4 °C -12.9 °C 34635.4 hPa ENE 17.9 km/h 56.6 km/h 42 % 0 mm
10:31 -5.4 °C -13.3 °C 34635.4 hPa East 17.1 km/h 40.7 km/h 40 % 0 mm
10:36 -5.3 °C -13.1 °C 34601.5 hPa ENE 14.8 km/h 34.8 km/h 41 % 0 mm
10:41 -5.4 °C -13.4 °C 34601.5 hPa NNE 13.2 km/h 28.5 km/h 40 % 0 mm
10:46 -5.3 °C -13.2 °C 34601.5 hPa NE 14 km/h 31.4 km/h 40 % 0 mm
10:51 -5.2 °C -13.2 °C 34635.4 hPa East 16.6 km/h 33.6 km/h 40 % 0 mm
10:56 -5.1 °C -13.3 °C 34635.4 hPa East 17.4 km/h 33.6 km/h 39 % 0 mm
11:01 -5.1 °C -13.2 °C 34635.4 hPa East 15.3 km/h 29.5 km/h 39 % 0 mm
11:06 -5.1 °C -13.2 °C 34601.5 hPa East 15 km/h 32.3 km/h 39 % 0 mm
11:11 -5.1 °C -13.3 °C 34601.5 hPa East 14.5 km/h 37.5 km/h 39 % 0 mm
11:16 -5.3 °C -13.4 °C 34601.5 hPa East 13.5 km/h 37.5 km/h 39 % 0 mm
11:21 -5.2 °C -13.6 °C 34635.4 hPa ENE 11.6 km/h 32.3 km/h 38 % 0 mm
11:26 -5.2 °C -13.6 °C 34635.4 hPa NE 11.9 km/h 32.3 km/h 38 % 0 mm
11:31 -5.2 °C -13.8 °C 34635.4 hPa NNE 12.9 km/h 27.7 km/h 37 % 0 mm
11:36 -5.2 °C -13.6 °C 34635.4 hPa North 11.4 km/h 23 km/h 38 % 0 mm
11:41 -5.1 °C -13.5 °C 34635.4 hPa North 11.9 km/h 25.4 km/h 38 % 0 mm
11:46 -5.1 °C -13.5 °C 34635.4 hPa North 12.2 km/h 25.4 km/h 38 % 0 mm
11:51 -4.9 °C -13.5 °C 34601.5 hPa ENE 11.9 km/h 31.4 km/h 37 % 0 mm
11:56 -4.8 °C -13.4 °C 34601.5 hPa East 16.1 km/h 34.1 km/h 37 % 0 mm
12:01 -4.9 °C -13.6 °C 34601.5 hPa East 15 km/h 34.1 km/h 37 % 0 mm
12:06 -5.1 °C -13.5 °C 34601.5 hPa ENE 11.4 km/h 26.2 km/h 38 % 0 mm
12:11 -5.3 °C -13.9 °C 34601.5 hPa NNE 11.4 km/h 26.2 km/h 37 % 0 mm
12:16 -5.4 °C -13.8 °C 34601.5 hPa ENE 10.1 km/h 22 km/h 38 % 0 mm
12:21 -5.4 °C -13.7 °C 34601.5 hPa East 9.8 km/h 19.6 km/h 38 % 0 mm
12:27 -5.1 °C -13.3 °C 34601.5 hPa East 10.3 km/h 22.5 km/h 39 % 0 mm
12:32 -4.8 °C -13.2 °C 34601.5 hPa East 8.5 km/h 32.3 km/h 38 % 0 mm
12:37 -4.6 °C -13 °C 34601.5 hPa East 10.3 km/h 32.3 km/h 38 % 0 mm
12:42 -4.6 °C -13.2 °C 34601.5 hPa ENE 10.1 km/h 25.4 km/h 37 % 0 mm
12:47 -4.8 °C -13.4 °C 34601.5 hPa East 10.3 km/h 20.9 km/h 37 % 0 mm
12:52 -5.1 °C -13.7 °C 34601.5 hPa East 12.4 km/h 20.9 km/h 37 % 0 mm
12:57 -5.3 °C -13.8 °C 34601.5 hPa ENE 6.9 km/h 19.6 km/h 37 % 0 mm
13:02 -5.3 °C -13.7 °C 34601.5 hPa East 5.5 km/h 12.7 km/h 38 % 0 mm
13:07 -5.1 °C -13.4 °C 34601.5 hPa East 8.9 km/h 22 km/h 38 % 0 mm
13:12 -5.1 °C -13.4 °C 34601.5 hPa East 11.1 km/h 31.4 km/h 38 % 0 mm
13:17 -5.1 °C -13.7 °C 34601.5 hPa East 10.1 km/h 31.4 km/h 37 % 0 mm
13:22 -5.2 °C -13.7 °C 34601.5 hPa East 8.2 km/h 25.4 km/h 37 % 0 mm
13:27 -5.3 °C -13.8 °C 34601.5 hPa ENE 8.9 km/h 25.4 km/h 37 % 0 mm
13:32 -5.4 °C -13.9 °C 34601.5 hPa ENE 10.3 km/h 24.3 km/h 37 % 0 mm
13:37 -5.5 °C -14.1 °C 34601.5 hPa ENE 9 km/h 23 km/h 37 % 0 mm
13:42 -5.6 °C -13.9 °C 34601.5 hPa East 6.4 km/h 12.7 km/h 38 % 0 mm
13:47 -5.7 °C -14 °C 34601.5 hPa ENE 7.2 km/h 15 km/h 38 % 0 mm
13:52 -5.6 °C -13.9 °C 34601.5 hPa ENE 8.5 km/h 20.3 km/h 38 % 0 mm
13:57 -5.2 °C -13.6 °C 34601.5 hPa ENE 9.3 km/h 20.3 km/h 38 % 0 mm
14:02 -5.1 °C -13.4 °C 34601.5 hPa NE 9.3 km/h 16.9 km/h 38 % 0 mm
14:07 -4.8 °C -13.4 °C 34567.7 hPa East 8 km/h 15.6 km/h 37 % 0 mm
14:12 -4.6 °C -13.2 °C 34567.7 hPa ESE 9 km/h 19.6 km/h 37 % 0 mm
14:17 -4.7 °C -13.4 °C 34567.7 hPa ESE 10.9 km/h 25.4 km/h 37 % 0 mm
14:22 -4.7 °C -13.3 °C 34601.5 hPa East 10.6 km/h 25.4 km/h 37 % 0 mm
14:27 -4.3 °C -12.9 °C 34601.5 hPa East 7.6 km/h 16.3 km/h 37 % 0 mm
14:32 -4.2 °C -12.9 °C 34601.5 hPa ESE 8 km/h 20.3 km/h 37 % 0 mm
14:37 -4.3 °C -13.2 °C 34601.5 hPa ESE 10.9 km/h 20.3 km/h 36 % 0 mm
14:42 -4.3 °C -13.2 °C 34601.5 hPa ESE 10.6 km/h 16.9 km/h 36 % 0 mm
14:47 -4.1 °C -13 °C 34601.5 hPa ENE 8.9 km/h 16.9 km/h 36 % 0 mm
14:52 -4.2 °C -13.1 °C 34567.7 hPa NE 6.8 km/h 16.9 km/h 36 % 0 mm
14:57 -4.3 °C -13.2 °C 34567.7 hPa East 9.7 km/h 25.4 km/h 36 % 0 mm
15:02 -4.5 °C -13.4 °C 34567.7 hPa ESE 12.2 km/h 25.4 km/h 36 % 0 mm
15:07 -4.7 °C -13.5 °C 34601.5 hPa ESE 12.2 km/h 20.3 km/h 36 % 0 mm
15:12 -4.8 °C -13.6 °C 34601.5 hPa East 11.1 km/h 11.1 km/h 36 % 0 mm
15:17 -4.9 °C -13.8 °C 34601.5 hPa East 9.3 km/h 16.9 km/h 36 % 0 mm
15:22 -5.1 °C -13.7 °C 34601.5 hPa East 6.8 km/h 16.9 km/h 37 % 0 mm
15:27 -5.2 °C -13.7 °C 34601.5 hPa NE 5.6 km/h 10.3 km/h 37 % 0 mm
15:32 -5 °C -13.6 °C 34601.5 hPa North 6.9 km/h 18.7 km/h 37 % 0 mm
15:37 -4.8 °C -13.7 °C 34635.4 hPa NNW 9.8 km/h 25.4 km/h 36 % 0 mm
15:42 -4.8 °C -13.7 °C 34635.4 hPa NNW 11.9 km/h 25.4 km/h 36 % 0 mm
15:47 -4.9 °C -13.8 °C 34635.4 hPa NNE 10.9 km/h 20.9 km/h 36 % 0 mm
15:52 -5 °C -13.8 °C 34601.5 hPa NNE 8.5 km/h 16.3 km/h 36 % 0 mm
15:57 -5.1 °C -13.7 °C 34601.5 hPa NE 10.1 km/h 26.2 km/h 37 % 0 mm
16:02 -5.2 °C -13.8 °C 34601.5 hPa NE 12.9 km/h 26.2 km/h 37 % 0 mm
16:07 -5.3 °C -13.8 °C 34601.5 hPa ENE 11.1 km/h 26.2 km/h 37 % 0 mm
16:12 -5.3 °C -13.9 °C 34601.5 hPa ENE 8.2 km/h 16.9 km/h 37 % 0 mm
16:17 -5.4 °C -13.9 °C 34601.5 hPa NE 7.6 km/h 16.9 km/h 37 % 0 mm
16:22 -5.4 °C -14 °C 34601.5 hPa North 7.7 km/h 12.7 km/h 37 % 0 mm
16:27 -5.4 °C -14 °C 34601.5 hPa North 7.2 km/h 12.7 km/h 37 % 0 mm
16:32 -5.4 °C -13.9 °C 34601.5 hPa North 8.9 km/h 19.2 km/h 37 % 0 mm
16:37 -5.1 °C -13.7 °C 34601.5 hPa NNE 8 km/h 19.2 km/h 37 % 0 mm
16:42 -4.9 °C -13.5 °C 34601.5 hPa NE 5.5 km/h 15 km/h 37 % 0 mm
16:47 -4.6 °C -13.2 °C 34601.5 hPa NE 5.1 km/h 11.1 km/h 37 % 0 mm
16:52 -4.4 °C -13.6 °C 34601.5 hPa North 9.3 km/h 34.1 km/h 35 % 0 mm
16:57 -4.4 °C -13.5 °C 34601.5 hPa NNW 13.2 km/h 34.1 km/h 35 % 0 mm
17:02 -4.6 °C -13.7 °C 34601.5 hPa North 12.7 km/h 25.4 km/h 35 % 0 mm
17:07 -4.7 °C -13.6 °C 34567.7 hPa ENE 13.2 km/h 25.4 km/h 36 % 0 mm
17:12 -4.8 °C -13.6 °C 34567.7 hPa ENE 11.9 km/h 19.6 km/h 36 % 0 mm
17:17 -4.7 °C -13.5 °C 34567.7 hPa ENE 8.2 km/h 14 km/h 36 % 0 mm
17:22 -4.7 °C -13.5 °C 34601.5 hPa ENE 9.3 km/h 37.5 km/h 36 % 0 mm
17:28 -4.7 °C -13.8 °C 34601.5 hPa NNE 14.5 km/h 37.5 km/h 35 % 0 mm
17:33 -4.7 °C -13.8 °C 34601.5 hPa NNE 12.4 km/h 37.5 km/h 35 % 0 mm
17:38 -4.7 °C -13.8 °C 34635.4 hPa NNE 11.1 km/h 22.5 km/h 35 % 0 mm
17:43 -4.6 °C -13.7 °C 34635.4 hPa NNE 13.2 km/h 22.5 km/h 35 % 0 mm
17:48 -4.5 °C -13.6 °C 34635.4 hPa NE 9.8 km/h 20.3 km/h 35 % 0 mm
17:53 -4.3 °C -13.4 °C 34601.5 hPa ENE 8.9 km/h 18.7 km/h 35 % 0 mm
17:58 -4.3 °C -13.4 °C 34601.5 hPa East 8 km/h 18.7 km/h 35 % 0 mm
18:03 -4.2 °C -13.4 °C 34601.5 hPa ENE 6.9 km/h 26.7 km/h 35 % 0 mm
18:08 -4.1 °C -13.3 °C 34601.5 hPa ENE 9 km/h 26.7 km/h 35 % 0 mm
18:13 -4.2 °C -13.3 °C 34601.5 hPa ENE 10.3 km/h 18.7 km/h 35 % 0 mm
18:18 -4.2 °C -13.4 °C 34601.5 hPa NE 10.6 km/h 26.7 km/h 35 % 0 mm
18:23 -4.5 °C -13.6 °C 34601.5 hPa NE 9 km/h 26.7 km/h 35 % 0 mm
18:28 -4.6 °C -13.7 °C 34601.5 hPa ENE 6.9 km/h 14 km/h 35 % 0 mm
18:33 -4.7 °C -13.5 °C 34601.5 hPa ENE 8.5 km/h 22 km/h 36 % 0 mm
18:38 -4.8 °C -13.8 °C 34601.5 hPa East 9.7 km/h 22 km/h 35 % 0 mm
18:43 -4.9 °C -13.7 °C 34601.5 hPa East 10.3 km/h 22 km/h 36 % 0 mm
18:48 -5 °C -13.8 °C 34601.5 hPa East 10.3 km/h 22 km/h 36 % 0 mm
18:53 -5.1 °C -13.9 °C 34601.5 hPa ENE 9.8 km/h 20.3 km/h 36 % 0 mm
18:58 -5.2 °C -14 °C 34601.5 hPa ENE 9 km/h 20.3 km/h 36 % 0 mm
19:03 -5.3 °C -14.1 °C 34601.5 hPa East 7.6 km/h 15.6 km/h 36 % 0 mm
19:08 -5.4 °C -14.2 °C 34601.5 hPa East 7.6 km/h 16.3 km/h 36 % 0 mm
19:13 -5.4 °C -14.2 °C 34601.5 hPa East 7.2 km/h 16.3 km/h 36 % 0 mm
19:18 -5.5 °C -14.3 °C 34601.5 hPa ENE 7.7 km/h 16.3 km/h 36 % 0 mm
19:23 -5.6 °C -14.1 °C 34601.5 hPa NE 6.3 km/h 15.6 km/h 37 % 0 mm
19:28 -5.7 °C -14.2 °C 34601.5 hPa ENE 5.1 km/h 11.1 km/h 37 % 0 mm
19:33 -5.7 °C -14.2 °C 34601.5 hPa ENE 5.5 km/h 8.9 km/h 37 % 0 mm
19:38 -5.8 °C -14.3 °C 34601.5 hPa NE 4.2 km/h 6.9 km/h 37 % 0 mm
19:43 -5.9 °C -14.4 °C 34601.5 hPa NE 2.1 km/h 6.4 km/h 37 % 0 mm
19:48 -6 °C -14.3 °C 34601.5 hPa NE 1 km/h 6.4 km/h 38 % 0 mm
19:53 -6.1 °C -14.3 °C 34601.5 hPa NNE 1.6 km/h 6.9 km/h 38 % 0 mm
19:58 -6.2 °C -14.4 °C 34601.5 hPa NE 3.1 km/h 8.9 km/h 38 % 0 mm
20:03 -6.2 °C -14.3 °C 34601.5 hPa NE 2.1 km/h 8.9 km/h 39 % 0 mm
20:08 -6.3 °C -14.3 °C 34601.5 hPa ENE 0.8 km/h 2.9 km/h 39 % 0 mm
20:13 -6.6 °C -14.3 °C 34601.5 hPa NNE 0.8 km/h 2.9 km/h 40 % 0 mm
20:18 -6.7 °C -14.3 °C 34601.5 hPa NNE 1 km/h 2.9 km/h 41 % 0 mm
20:23 -6.9 °C -14.3 °C 34601.5 hPa Calm   2.9 km/h 42 % 0 mm
20:28 -7.1 °C -14.3 °C 34601.5 hPa NNW 0.5 km/h 8.9 km/h 43 % 0 mm
20:33 -7.2 °C -14.4 °C 34601.5 hPa NW 1.6 km/h 8.9 km/h 43 % 0 mm
20:38 -7.4 °C -14.3 °C 34601.5 hPa NW 1.6 km/h 8.9 km/h 44 % 0 mm
20:43 -7.6 °C -14.3 °C 34601.5 hPa NW 0.3 km/h 8.9 km/h 45 % 0 mm
20:48 -7.8 °C -14.4 °C 34601.5 hPa Calm     46 % 0 mm
20:53 -8 °C -14.3 °C 34601.5 hPa NNW 1.6 km/h 6.9 km/h 47 % 0 mm
20:58 -8.2 °C -14.3 °C 34601.5 hPa NNW 1.3 km/h 8 km/h 48 % 0 mm
21:03 -8.3 °C -14.3 °C 34601.5 hPa NW 0.8 km/h 8 km/h 49 % 0 mm
21:08 -8.4 °C -14.3 °C 34567.7 hPa West 0.8 km/h 5.1 km/h 50 % 0 mm
21:13 -8.6 °C -14.3 °C 34567.7 hPa North 0.3 km/h   51 % 0 mm
21:18 -8.8 °C -14.4 °C 34567.7 hPa Calm     51 % 0 mm
21:23 -8.9 °C -14.3 °C 34601.5 hPa Calm     53 % 0 mm
21:28 -9.1 °C -14.3 °C 34601.5 hPa Calm     53 % 0 mm
21:33 -9.2 °C -14.4 °C 34601.5 hPa Calm     54 % 0 mm
21:38 -9.3 °C -14.3 °C 34601.5 hPa Calm     55 % 0 mm
21:43 -9.4 °C -14.4 °C 34601.5 hPa Calm     55 % 0 mm
21:48 -9.5 °C -14.2 °C 34601.5 hPa Calm     57 % 0 mm
21:53 -9.6 °C -14.2 °C 34601.5 hPa Calm     58 % 0 mm
21:58 -9.7 °C -14.1 °C 34601.5 hPa Calm     59 % 0 mm
22:03 -9.8 °C -14.2 °C 34601.5 hPa Calm     59 % 0 mm
22:08 -9.9 °C -14.1 °C 34635.4 hPa Calm     60 % 0 mm
22:13 -10 °C -14.1 °C 34635.4 hPa NNW 1.8 km/h 8.9 km/h 61 % 0 mm
22:18 -10.1 °C -14.2 °C 34635.4 hPa NNW 2.3 km/h 8.9 km/h 61 % 0 mm
22:23 -10.1 °C -14.1 °C 34601.5 hPa WNW 0.8 km/h 5.1 km/h 62 % 0 mm
22:28 -10.2 °C -14.1 °C 34601.5 hPa Calm     63 % 0 mm
22:33 -10.3 °C -14 °C 34601.5 hPa Calm   2.9 km/h 64 % 0 mm
22:38 -10.3 °C -14.1 °C 34635.4 hPa Calm   2.9 km/h 64 % 0 mm
22:43 -10.4 °C -14 °C 34635.4 hPa Calm     65 % 0 mm
22:48 -10.5 °C -13.9 °C 34635.4 hPa Calm     66 % 0 mm
22:53 -10.6 °C -14 °C 34601.5 hPa Calm     66 % 0 mm
22:58 -10.6 °C -13.9 °C 34601.5 hPa Calm     67 % 0 mm
23:04 -10.7 °C -13.8 °C 34601.5 hPa Calm     68 % 0 mm
23:09 -10.7 °C -13.9 °C 34635.4 hPa Calm     68 % 0 mm
23:14 -10.8 °C -14 °C 34635.4 hPa Calm     68 % 0 mm
23:19 -10.8 °C -13.9 °C 34635.4 hPa Calm     69 % 0 mm
23:24 -10.9 °C -13.9 °C 34635.4 hPa Calm     69 % 0 mm
23:29 -10.9 °C -13.9 °C 34635.4 hPa Calm     70 % 0 mm
23:34 -11 °C -13.9 °C 34635.4 hPa Calm     70 % 0 mm
23:39 -11 °C -13.8 °C 34635.4 hPa Calm     71 % 0 mm
23:44 -11.1 °C -13.9 °C 34635.4 hPa Calm     71 % 0 mm
23:49 -11.1 °C -13.9 °C 34635.4 hPa Calm     71 % 0 mm
23:54 -11.1 °C -13.9 °C 34635.4 hPa Calm     71 % 0 mm
23:59 -11.2 °C -13.9 °C 34635.4 hPa Calm     72 % 0 mm
Vremenska postaja Senovo
Podatki zbrani iz Weather Underground - 3 mb

Script developed by  Jim McMurry - jmcmurry@mwt.net Adapted for the template by  Wim van der Kuil - Leuven-Template.eu

Vremenski podatki so objavljeni na:

European Weather Network

WeatherCloud

Weather Underground

AWEKAS

HAMweather, WeatherForYou, PWS Weather

MapView

Geostik

Slovenia weather network

Oprema, ki se uporablja:

Vremenski program
Cumulus

Vremenski server
Asus

Cumulus

Asus